Temperature
11 11 10 10 10 9 9 9 9 9 9 9 9 9 9 10 10 10 10 11 11 11 11 12 12 13 13 14 15 15 16 16 16 17 16 16 16 16 15 15 15 16 16
11 10 10 10 9 9 9 9 9 8 8 8 8 8 9 9 9 10 10 10 10 10 11 11 11 12 12 13 14 14 15 15 16 16 16 16 15 15 15 14 14 15 15
10 10 10 9 9 9 9 8 8 8 8 8 8 8 8 8 9 9 9 10 10 10 10 10 11 11 12 12 13 13 14 15 15 15 15 15 15 15 14 13 13 14 14
10 9 9 9 9 9 8 8 8 8 8 8 8 8 8 8 8 9 9 9 10 10 10 10 10 11 11 11 12 12 13 14 14 14 14 14 14 14 14 13 13 13 13
9 9 9 9 9 8 8 8 8 8 8 8 8 7 7 8 8 8 9 9 9 9 10 10 10 10 11 11 11 12 12 13 13 14 14 14 14 13 13 13 13 12 12
9 9 9 9 8 8 8 8 8 8 8 7 7 7 7 7 8 8 8 9 9 9 9 9 10 10 10 10 11 11 12 12 12 13 13 14 14 14 13 13 12 12 11
9 9 9 8 8 8 8 8 8 8 7 7 7 7 7 7 7 7 8 8 8 8 9 9 9 10 10 10 11 11 11 11 12 12 13 13 13 14 14 13 13 12 12
9 9 8 8 8 8 8 8 7 7 7 7 7 7 7 7 7 7 7 7 8 8 9 9 9 9 10 10 10 10 11 11 11 12 12 13 13 13 14 14 13 12 12
9 9 8 8 8 8 7 7 7 7 7 7 7 7 7 7 7 7 7 7 7 8 8 8 9 9 10 10 10 10 10 10 11 11 12 12 12 13 13 13 12 12 11
8 8 8 8 8 8 8 8 8 7 7 7 7 7 7 7 7 7 7 7 7 7 8 8 8 9 9 9 10 10 10 10 10 11 11 11 12 12 12 13 13 12 12
8 8 8 8 7 8 8 8 8 7 7 7 7 7 7 7 7 7 7 7 7 7 8 8 8 9 9 9 9 9 10 10 10 10 11 11 11 12 12 12 12 13 13
8 8 8 8 8 8 8 8 8 8 8 7 7 7 7 7 7 7 7 7 7 7 7 8 8 8 9 9 9 9 9 9 10 10 10 11 11 12 12 12 12 12 13
8 8 8 8 8 8 8 8 8 8 8 7 7 7 7 7 7 7 7 6 6 7 7 7 8 8 9 9 9 9 9 9 9 10 10 10 11 12 12 12 12 12 12
7 7 7 7 8 8 8 8 8 8 8 7 7 7 7 7 6 6 6 6 6 7 7 7 8 8 8 9 9 9 9 9 9 10 10 10 11 11 11 11 11 11 11
7 7 7 7 8 8 8 8 8 8 8 7 7 7 6 6 6 6 6 6 6 7 7 7 7 8 8 8 8 9 9 9 9 10 10 10 10 11 11 11 11 11 11
7 7 7 7 8 8 8 8 8 8 8 8 7 7 7 6 6 6 6 6 6 7 7 7 7 8 8 8 9 9 9 9 9 10 10 10 10 10 11 11 11 11 11
7 7 7 7 8 8 8 8 8 8 8 8 7 7 7 6 6 6 6 6 7 7 7 7 7 8 8 9 9 9 9 9 10 10 10 10 10 10 10 10 10 10 10
8 7 7 7 8 8 8 8 8 8 8 8 7 7 7 7 6 6 6 6 7 7 7 7 8 8 8 9 9 10 10 10 10 10 10 10 10 10 10 10 10 10 10
8 8 8 8 8 8 8 9 8 8 8 8 8 7 7 7 7 7 7 7 7 7 7 8 8 8 9 9 9 10 10 10 10 10 10 10 10 10 10 10 10 10 10
8 8 8 8 8 9 9 9 9 8 8 8 8 7 7 7 7 7 7 7 7 7 8 8 8 9 9 9 10 10 10 10 10 10 10 10 10 10 10 10 10 10 9
8 8 9 9 9 9 9 9 9 8 8 8 8 7 7 7 7 7 7 7 8 8 8 8 9 9 9 9 9 10 10 10 10 10 10 10 10 10 9 9 9 9 9
8 8 8 9 9 9 9 9 9 8 8 8 8 8 8 7 7 8 8 8 8 8 8 8 9 9 9 9 9 9 9 10 10 10 10 10 10 9 9 9 9 9 9
8 8 9 9 9 9 9 9 9 9 8 8 8 8 8 8 8 8 8 8 8 8 8 8 9 9 9 9 9 9 9 9 9 9 9 9 9 9 9 9 9 9 9
8 8 9 9 9 9 9 9 9 9 9 9 8 8 8 8 8 8 8 8 8 8 8 8 8 9 9 9 9 9 9 9 9 9 9 9 9 9 9 9 9 9 9
8 8 9 9 9 9 9 9 9 9 9 9 9 9 8 8 8 8 8 8 8 8 8 8 8 8 8 8 8 9 9 9 9 9 9 9 9 9 9 9 9 9 9
8 8 9 9 9 9 10 10 10 9 9 9 9 9 9 9 8 8 8 8 8 8 8 8 8 8 8 8 8 8 8 8 8 8 8 8 9 9 9 9 9 9 9
Wind_Speed
8 7 7 8 8 9 9 9 9 9 9 10 10 10 10 10 9 8 9 8 8 8 7 6 6 6 5 5 6 5 5 4 3 3 6 9 10 10 8 10 11 9 9
8 8 8 8 9 10 11 10 10 10 10 11 10 11 12 12 10 10 11 11 10 9 9 8 7 6 7 6 5 6 6 5 3 6 6 8 10 11 10 9 8 9 9
10 9 9 10 10 10 10 10 10 10 10 11 11 11 12 12 11 11 11 11 11 10 9 9 9 8 7 6 6 6 5 5 4 5 7 7 8 10 10 9 10 8 9
12 12 11 10 10 11 11 11 11 11 11 11 11 12 12 12 13 12 12 11 11 10 10 10 10 9 9 8 7 7 6 5 5 5 6 8 8 10 10 9 8 7 7
12 13 12 11 10 11 11 11 11 12 14 12 12 12 12 12 13 13 11 13 11 11 11 11 11 12 12 9 8 7 7 6 6 6 6 7 8 11 10 7 9 7 7
11 13 12 12 12 12 11 12 12 12 12 12 12 13 13 15 14 12 10 10 9 10 10 11 11 12 13 13 12 10 9 8 8 8 7 8 10 10 9 11 11 10 5
12 13 12 13 13 13 14 14 13 13 13 12 13 13 13 13 16 15 15 11 11 10 9 9 13 13 14 11 11 12 11 10 9 7 8 8 9 11 12 13 12 10 6
13 13 13 13 14 13 13 14 13 12 12 12 13 13 12 14 16 15 15 13 11 11 10 10 10 10 11 12 11 11 10 10 10 8 6 6 5 7 10 12 12 9 8
14 14 14 14 15 14 15 14 13 12 12 12 12 12 12 12 13 13 13 10 10 11 11 11 11 11 12 13 11 10 10 9 11 11 9 6 6 7 8 11 12 12 10
14 15 15 14 15 15 15 14 12 11 12 12 12 11 11 10 10 11 12 9 9 9 9 10 13 13 13 14 11 10 10 8 9 10 9 8 7 8 11 12 14 14 11
15 15 15 15 15 15 13 11 11 11 11 11 11 10 9 8 7 9 11 7 7 8 7 7 8 13 14 15 11 8 8 8 8 9 9 8 8 8 9 10 11 13 12
15 16 15 15 15 15 13 11 11 10 10 10 9 9 6 5 5 7 10 9 6 4 4 4 5 10 14 15 10 8 8 7 6 7 8 8 9 9 9 10 11 9 7
15 16 16 17 15 13 12 11 10 8 8 8 7 7 6 3 2 5 8 8 6 3 1 2 1 7 11 11 10 10 8 5 6 6 8 8 8 8 8 8 9 8 7
15 16 15 15 15 13 10 9 8 8 7 7 7 7 5 3 2 1 4 5 5 4 3 2 4 8 8 8 9 8 6 6 6 7 7 7 8 8 8 8 9 9 7
15 15 15 14 13 12 11 8 8 6 4 5 7 7 6 4 2 3 1 1 2 3 3 3 3 4 6 6 7 8 8 7 7 6 7 7 8 8 8 9 10 10 7
14 14 13 13 12 11 11 10 7 6 5 5 5 5 4 2 1 1 2 2 2 2 1 4 5 6 7 8 8 9 9 8 8 7 7 8 8 9 9 9 10 11 11
14 14 12 12 12 11 10 9 8 5 6 8 7 6 5 4 2 2 1 1 2 1 3 4 5 6 7 8 8 8 9 9 8 8 8 8 9 10 11 11 11 11 11
14 13 12 11 11 11 10 9 7 6 5 4 5 7 6 5 4 3 2 2 3 4 6 6 6 6 6 7 6 6 6 7 7 7 8 9 9 11 12 12 12 12 11
13 11 11 12 11 11 10 9 7 6 5 4 2 3 5 5 5 4 4 5 5 5 7 7 6 6 6 6 5 5 5 5 6 7 8 9 10 11 11 12 12 15 12
11 13 13 12 11 10 9 8 6 5 5 4 3 1 3 4 4 5 6 6 6 5 5 6 5 5 5 5 4 4 5 5 6 6 7 8 9 10 12 13 13 14 12
11 12 14 11 9 9 9 8 6 5 5 4 3 1 1 3 3 4 5 5 5 5 4 4 4 5 5 4 4 5 6 6 6 7 8 8 9 10 11 11 12 13 12
11 10 10 11 9 8 8 8 6 5 5 5 3 1 2 3 3 3 3 3 3 3 3 3 4 4 3 4 4 5 5 5 6 7 8 8 9 11 11 12 12 12 12
10 11 11 10 8 7 7 7 6 5 5 4 4 3 2 2 2 2 2 1 1 2 1 2 2 2 2 2 1 2 4 5 6 8 8 8 9 10 11 12 14 14 13
10 10 11 10 8 7 7 7 5 4 5 5 4 4 3 2 2 1 1 1 1 1 0 1 1 2 3 2 1 1 2 3 5 6 9 9 10 10 11 11 12 15 14
9 10 10 10 9 8 7 6 5 4 4 4 4 4 4 3 2 1 1 1 1 1 1 1 1 2 3 3 3 4 6 7 5 6 7 8 10 11 11 12 11 13 13
8 9 9 9 9 9 7 6 5 5 4 4 4 4 4 5 4 3 2 1 1 1 2 2 3 4 5 5 8 8 8 8 7 6 5 7 9 9 11 10 12 12 14
Wind_Direction
318 317 313 307 306 304 298 294 295 297 296 293 289 285 281 276 268 254 246 244 245 243 238 233 236 246 257 264 275 279 274 264 233 173 142 140 133 131 127 124 126 111 99
320 315 310 307 305 302 302 301 299 294 291 291 287 285 281 277 269 261 252 247 240 238 233 227 226 230 238 244 255 268 267 263 217 175 154 148 144 137 136 134 125 112 105
318 315 314 310 307 303 302 299 296 293 289 288 286 282 279 277 272 266 258 250 245 240 233 226 221 217 225 230 233 246 260 260 239 188 174 160 148 141 134 125 117 117 111
318 316 309 305 303 301 300 297 294 292 289 284 281 279 277 275 271 266 261 252 244 240 237 230 222 215 214 215 225 227 232 243 236 211 182 166 155 148 141 136 132 134 130
315 311 307 304 303 300 298 297 294 292 291 288 285 282 277 273 267 259 256 256 246 238 235 232 227 216 210 205 211 215 218 221 221 216 198 177 163 160 157 152 144 133 122
312 309 307 305 303 301 301 299 296 294 292 288 284 281 276 274 273 272 262 262 258 247 241 236 234 222 212 203 201 198 200 209 212 208 206 192 181 172 161 155 149 147 142
313 309 308 307 306 305 307 305 301 299 295 289 285 280 275 270 267 263 259 254 254 247 241 240 241 229 201 197 198 197 201 205 206 207 211 205 185 176 167 161 162 162 145
313 311 312 310 308 308 306 302 300 299 296 292 287 283 277 272 262 252 248 247 248 242 235 232 234 243 220 194 192 198 203 202 201 205 209 202 192 182 175 166 158 134 121
315 316 316 314 311 308 306 303 301 299 297 293 289 283 278 273 260 248 237 243 241 240 234 230 226 232 225 195 191 195 198 200 200 199 189 184 187 185 170 155 150 147 146
319 318 316 313 310 307 303 301 301 298 295 297 294 289 284 277 261 243 225 233 236 238 232 232 227 225 215 194 192 193 197 197 189 188 187 185 191 187 180 171 162 158 150
319 316 314 312 309 303 302 303 302 299 299 299 297 294 287 279 261 237 216 228 233 236 232 225 225 210 201 197 196 198 199 189 187 184 184 183 188 186 185 180 171 166 161
319 316 315 313 311 310 307 304 303 301 301 301 303 303 294 279 259 233 211 221 246 251 243 235 220 194 189 189 193 182 171 176 185 186 186 186 186 185 186 180 173 169 162
320 317 315 313 310 307 306 305 305 304 304 308 312 313 312 305 259 218 211 217 226 244 299 327 215 182 184 188 194 177 172 191 198 198 196 191 187 180 175 169 163 152 133
320 318 314 312 311 312 310 308 307 310 312 316 319 321 324 325 322 242 204 205 205 209 229 222 169 172 190 191 181 186 199 213 209 205 200 188 177 173 174 166 159 149 132
320 318 316 313 312 313 312 310 305 309 302 300 313 319 325 332 8 8 326 228 201 181 196 190 188 179 196 201 196 193 200 211 220 210 199 188 175 170 169 161 156 151 148
319 318 317 314 314 315 316 314 295 279 259 247 259 283 311 358 49 25 45 49 45 34 201 203 212 206 206 206 205 201 201 205 206 201 195 188 179 174 169 163 164 164 161
316 315 314 314 314 315 315 314 311 291 251 250 254 258 264 295 293 281 288 315 317 323 239 224 220 218 219 221 213 205 201 202 198 193 189 184 177 172 170 168 168 168 165
318 314 314 315 315 313 312 311 311 312 306 284 238 232 233 238 250 242 207 216 234 227 236 235 225 224 226 228 223 210 203 195 191 189 182 178 177 174 173 170 170 170 166
319 319 320 317 312 312 314 317 321 324 317 307 278 191 210 211 221 228 213 234 241 227 226 232 232 229 225 223 214 206 206 197 185 180 179 176 173 171 171 170 169 167 165
317 314 315 316 317 320 326 330 336 335 334 327 316 261 180 200 219 207 213 232 247 252 243 235 231 229 220 216 213 203 197 188 182 181 176 174 172 170 169 169 169 171 174
320 320 317 316 324 330 333 334 340 340 338 338 341 21 325 262 266 250 223 222 233 240 243 236 227 225 213 199 203 204 200 190 184 179 173 172 171 169 169 170 170 170 172
317 320 323 323 326 332 331 331 340 342 347 355 345 318 249 272 285 272 247 234 240 236 238 247 238 229 206 193 195 199 198 186 178 173 171 171 170 168 167 167 168 170 172
317 323 326 327 332 330 327 338 351 353 353 357 352 352 338 315 303 306 306 274 249 247 237 229 244 223 169 150 153 182 190 182 174 168 165 165 165 166 165 166 168 170 174
321 326 329 331 335 340 345 347 1 4 359 356 357 0 7 357 342 325 306 272 235 221 243 247 218 129 120 116 114 127 123 128 145 155 159 160 161 162 164 166 169 173 174
328 331 332 335 339 347 353 352 2 8 358 2 9 13 21 21 13 17 19 106 136 157 149 146 115 124 127 131 112 93 92 96 113 140 152 153 155 157 162 164 167 169 168
335 334 334 338 342 347 354 354 3 16 14 13 15 18 18 24 27 34 47 73 108 102 99 106 104 106 109 99 98 99 97 96 98 109 136 149 152 156 159 162 165 165 162
Height
1480 1477 1473 1470 1467 1464 1461 1458 1456 1453 1451 1449 1447 1446 1445 1444 1444 1444 1444 1444 1444 1444 1444 1445 1446 1448 1450 1452 1454 1457 1461 1464 1466 1469 1471 1473 1476 1479 1481 1484 1485 1488 1490
1475 1472 1469 1465 1462 1459 1456 1453 1450 1447 1445 1442 1440 1439 1438 1437 1437 1437 1437 1438 1438 1438 1439 1440 1440 1442 1444 1446 1449 1452 1455 1458 1462 1465 1467 1470 1473 1476 1479 1481 1483 1485 1487
1471 1468 1464 1460 1457 1454 1450 1447 1444 1441 1438 1436 1434 1432 1430 1430 1429 1429 1430 1430 1431 1432 1433 1434 1435 1436 1437 1440 1443 1446 1450 1453 1457 1461 1464 1467 1470 1473 1476 1479 1481 1483 1486
1467 1463 1459 1456 1452 1449 1445 1442 1438 1435 1432 1429 1427 1425 1423 1422 1421 1421 1422 1423 1424 1425 1426 1427 1429 1430 1432 1434 1437 1440 1444 1448 1452 1456 1460 1463 1466 1469 1473 1476 1479 1481 1484
1462 1459 1455 1451 1448 1444 1440 1436 1432 1429 1426 1423 1420 1417 1415 1414 1413 1413 1414 1415 1416 1417 1419 1420 1422 1424 1426 1428 1430 1433 1437 1441 1445 1450 1455 1458 1461 1465 1468 1473 1476 1479 1482
1458 1454 1450 1447 1443 1439 1435 1431 1426 1422 1419 1416 1412 1409 1407 1406 1406 1406 1406 1407 1408 1409 1411 1413 1416 1418 1420 1422 1424 1427 1430 1434 1439 1444 1449 1452 1456 1460 1464 1469 1472 1476 1480
1454 1450 1446 1442 1437 1433 1429 1425 1420 1416 1412 1408 1405 1402 1399 1397 1396 1396 1396 1398 1399 1401 1404 1406 1410 1412 1414 1416 1418 1421 1424 1427 1432 1438 1443 1446 1450 1454 1459 1464 1468 1472 1476
1450 1445 1441 1437 1432 1428 1423 1419 1414 1410 1406 1401 1397 1394 1390 1388 1387 1387 1387 1389 1390 1393 1396 1399 1402 1406 1408 1410 1413 1415 1418 1421 1426 1431 1435 1441 1446 1450 1455 1460 1464 1470 1475
1446 1441 1436 1432 1427 1422 1417 1413 1409 1404 1399 1395 1391 1387 1383 1380 1379 1379 1379 1381 1382 1385 1389 1392 1396 1399 1402 1405 1408 1411 1413 1416 1420 1425 1429 1434 1440 1445 1450 1456 1460 1465 1471
1441 1437 1432 1427 1422 1417 1412 1408 1403 1398 1394 1389 1385 1381 1377 1374 1372 1372 1373 1374 1376 1379 1383 1386 1390 1393 1397 1400 1404 1407 1409 1412 1415 1420 1424 1429 1434 1439 1445 1450 1454 1459 1465
1437 1432 1427 1422 1417 1412 1408 1403 1398 1393 1389 1384 1380 1376 1372 1369 1367 1367 1368 1369 1371 1374 1377 1380 1384 1388 1392 1396 1400 1403 1406 1409 1412 1415 1419 1424 1429 1434 1440 1445 1450 1455 1459
1432 1427 1422 1417 1413 1408 1403 1398 1394 1389 1385 1380 1376 1372 1368 1366 1364 1363 1364 1365 1368 1370 1373 1376 1380 1383 1387 1392 1396 1399 1403 1406 1409 1412 1415 1419 1424 1429 1435 1441 1446 1452 1458
1428 1423 1418 1413 1408 1404 1399 1395 1390 1386 1382 1378 1374 1370 1366 1363 1361 1360 1361 1363 1365 1368 1370 1373 1376 1379 1383 1388 1392 1396 1399 1403 1405 1408 1411 1415 1420 1425 1431 1436 1443 1449 1454
1424 1418 1413 1409 1404 1400 1396 1391 1387 1383 1379 1376 1372 1368 1364 1362 1360 1359 1359 1361 1363 1366 1369 1371 1373 1377 1381 1385 1389 1392 1395 1399 1402 1404 1407 1412 1416 1421 1426 1431 1437 1443 1449
1420 1415 1410 1405 1401 1396 1392 1388 1384 1381 1377 1373 1370 1366 1363 1361 1359 1358 1359 1360 1362 1365 1367 1370 1372 1375 1378 1382 1385 1388 1392 1395 1398 1401 1404 1408 1411 1416 1422 1427 1433 1438 1444
1417 1411 1407 1402 1398 1393 1389 1385 1381 1378 1374 1370 1368 1365 1362 1361 1359 1359 1359 1360 1361 1364 1366 1368 1370 1373 1376 1379 1382 1385 1388 1391 1394 1397 1400 1404 1407 1412 1417 1423 1428 1433 1439
1414 1409 1404 1399 1395 1391 1386 1382 1378 1374 1371 1368 1365 1363 1361 1360 1359 1358 1359 1360 1361 1363 1365 1367 1369 1371 1373 1376 1379 1382 1385 1387 1391 1394 1397 1400 1404 1409 1413 1418 1423 1429 1435
1412 1407 1402 1397 1393 1388 1384 1380 1376 1372 1368 1365 1363 1361 1360 1359 1358 1358 1358 1359 1360 1361 1363 1365 1367 1369 1371 1373 1376 1379 1381 1384 1387 1390 1393 1397 1401 1404 1409 1414 1419 1425 1430
1410 1405 1400 1396 1391 1387 1383 1378 1374 1370 1367 1364 1361 1359 1358 1358 1357 1357 1357 1358 1359 1360 1361 1363 1365 1366 1368 1371 1373 1376 1378 1380 1383 1386 1389 1393 1397 1400 1404 1409 1415 1421 1427
1408 1404 1399 1395 1390 1386 1382 1377 1373 1369 1366 1363 1360 1359 1358 1357 1356 1356 1356 1357 1358 1359 1360 1361 1363 1364 1366 1368 1370 1372 1374 1377 1380 1382 1385 1389 1393 1397 1401 1406 1411 1417 1423
1406 1402 1398 1394 1390 1386 1381 1377 1373 1369 1366 1362 1360 1358 1357 1356 1356 1356 1356 1356 1357 1358 1358 1360 1361 1362 1364 1366 1367 1369 1371 1373 1376 1379 1382 1385 1389 1393 1398 1403 1408 1413 1419
1405 1401 1397 1394 1390 1386 1382 1378 1373 1370 1366 1363 1360 1358 1357 1356 1356 1355 1355 1355 1356 1357 1357 1358 1359 1360 1362 1363 1365 1366 1368 1370 1372 1375 1378 1382 1386 1390 1395 1400 1405 1411 1416
1404 1401 1397 1394 1390 1387 1382 1378 1374 1371 1367 1364 1361 1359 1358 1356 1355 1354 1354 1354 1355 1355 1356 1357 1358 1359 1360 1361 1363 1364 1366 1368 1370 1372 1375 1378 1382 1387 1391 1397 1402 1407 1413
1404 1401 1397 1394 1391 1387 1383 1379 1376 1372 1369 1366 1364 1361 1359 1357 1355 1354 1354 1353 1354 1355 1355 1356 1357 1358 1359 1360 1361 1362 1363 1365 1367 1370 1373 1376 1380 1384 1390 1395 1400 1406 1412
1403 1400 1397 1394 1392 1388 1384 1381 1378 1375 1372 1369 1366 1364 1361 1359 1357 1356 1355 1354 1354 1354 1355 1355 1356 1357 1357 1358 1360 1361 1362 1364 1366 1369 1372 1375 1379 1383 1388 1393 1398 1404 1410
1402 1399 1397 1395 1392 1389 1386 1383 1381 1378 1375 1372 1369 1367 1364 1362 1360 1358 1357 1356 1355 1355 1356 1356 1356 1356 1357 1358 1358 1359 1361 1363 1365 1368 1371 1375 1379 1383 1388 1393 1398 1404 1410